Lanseria, South Africa

7:20 AM SAST on February 14, 2016 (GMT +0200)
Lanseria

Weather History for FALA - August, 2013

Change the Weather History Date:

Wednesday, August 21, 2013

  Actual Average Record
Temperature  
Mean Temperature 58 °F -  
Max Temperature 73 °F - - ()
Min Temperature 42 °F - - ()
Degree Days  
Heating Degree Days 8    
Growing Degree Days 8 (Base 50)    
Moisture  
Dew Point 38 °F    
Average Humidity 50    
Maximum Humidity 81    
Minimum Humidity 23    
Precipitation  
Precipitation 0.00 in - - ()
Sea Level Pressure  
Sea Level Pressure 30.16 in    
Wind  
Wind Speed 5 mph ()    
Max Wind Speed 18 mph    
Max Gust Speed 31 mph    
T = Trace of Precipitation, MM = Missing Value Source: Averaged Metar Reports

Daily Weather History Graph

Daily Weather History Graph

Search for Another Location

Airport or City:

Trip Planner

Search our weather history database for the weather conditions in past years. The results will help you decide how hot, cold, wet, or windy it might be!

Date:

Astronomy

Aug. 21, 2013 Rise Set
Actual Time 6:31 AM SAST 5:51 PM SAST
Civil Twilight 6:08 AM SAST 6:15 PM SAST
Nautical Twilight 5:41 AM SAST 6:42 PM SAST
Astronomical Twilight 5:14 AM SAST 7:08 PM SAST
Moon 6:26 PM SAST (8/21) 6:23 AM SAST (8/21)
Length of Visible Light 12h 07m
Length of Day
11h 20m
Full, 100% of the Moon is Illuminated
Aug 21
Full
Aug 28
Last Quarter
Sep 5
New
Sep 12
First Quarter
Sep 19
Full

Hourly Weather History & Observations

Time (SAST) Temp. Windchill Dew Point Humidity Pressure Visibility Wind Dir Wind Speed Gust Speed Precip Events Conditions
5:00 AM 42.8 °F - 37.4 °F 81% 30.24 in - Variable 2.3 mph - N/A   Clear
6:00 AM 42.8 °F 39.3 °F 37.4 °F 81% 30.24 in - SSW 5.8 mph - N/A   Clear
6:15 AM 46.4 °F 45.2 °F 41.0 °F 81% 30.24 in - South 3.5 mph - N/A   Clear
7:00 AM 42.8 °F - 37.4 °F 81% 30.24 in - Calm Calm - N/A   Clear
7:37 AM 46.4 °F - 41.0 °F 81% 30.24 in - Calm Calm - N/A   Clear
8:00 AM 48.2 °F - 41.0 °F 76% 30.24 in - Calm Calm - N/A   Clear
8:28 AM 51.8 °F - 41.0 °F 67% 30.24 in - Calm Calm - N/A   Clear
9:00 AM 55.4 °F - 42.8 °F 63% 30.27 in - Calm Calm - N/A   Clear
10:00 AM 59.0 °F - 42.8 °F 55% 30.24 in - NNW 6.9 mph - N/A   Clear
10:26 AM 62.6 °F - 41.0 °F 45% 30.24 in - North 9.2 mph - N/A   Clear
11:00 AM 64.4 °F - 41.0 °F 42% 30.21 in - NNW 15.0 mph - N/A   Clear
12:00 PM 66.2 °F - 39.2 °F 37% 30.18 in - NNW 10.4 mph - N/A   Clear
1:00 PM 68.0 °F - 37.4 °F 33% 30.15 in - NNW 11.5 mph - N/A   Clear
2:00 PM 71.6 °F - 35.6 °F 27% 30.12 in - WNW 15.0 mph - N/A   Clear
3:00 PM 71.6 °F - 39.2 °F 31% 30.06 in - North 15.0 mph - N/A   Clear
4:00 PM 73.4 °F - 35.6 °F 25% 30.06 in - NW 18.4 mph 31.1 mph N/A   Clear
5:00 PM 73.4 °F - 33.8 °F 23% 30.04 in - NW 18.4 mph 31.1 mph N/A   Clear
6:00 PM 69.8 °F - 32.0 °F 25% 30.06 in - WNW 12.7 mph - N/A   Clear
7:00 PM 64.4 °F - 33.8 °F 32% 30.06 in - WNW 9.2 mph - N/A   Clear
8:00 PM 62.6 °F - 33.8 °F 34% 30.06 in - Calm Calm - N/A   Clear
9:00 PM 62.6 °F - 33.8 °F 34% 30.06 in - Variable 2.3 mph - N/A   Clear
10:00 PM 60.8 °F - 35.6 °F 39% 30.06 in - South 6.9 mph - N/A   Clear